HB9EKO-12 Weather Reports


time (UTC)temp
F
wind
direction
speed
knots
gust
knots
rain 1hr
in
rain 24hr
in
rain mn
in
humidity
%
barometer
mb
20260502195354 66 0 0.0 0.0 0.00 0.00 0.00 47 1017.0
20260502193849 68 0 0.0 0.0 0.00 0.00 0.00 45 1017.0
20260502192343 70 0 0.0 0.0 0.00 0.00 0.00 42 1017.0
20260502190838 71 0 0.0 0.0 0.00 0.00 0.00 38 1017.0
20260502185333 73 0 0.0 0.0 0.00 0.00 0.00 36 1017.0
20260502183828 75 0 0.0 0.0 0.00 0.00 0.00 34 1017.0
20260502182322 78 0 0.0 0.0 0.00 0.00 0.00 29 1017.0
20260502180817 80 0 0.0 0.0 0.00 0.00 0.00 27 1017.0
20260502163746 96 0 0.0 0.0 0.00 0.00 0.00 17 1017.0
20260502162240 95 0 0.0 0.0 0.00 0.00 0.00 17 1017.0
20260502160735 92 0 0.9 0.0 0.00 0.00 0.00 19 1017.0
20260502152219 92 0 0.0 0.0 0.00 0.00 0.00 20 1018.0
20260502150714 92 0 2.6 0.0 0.00 0.00 0.00 21 1018.0
20260502130632 79 0 6.1 0.0 0.00 0.00 0.00 28 1020.0
20260502123622 79 0 0.9 0.0 0.00 0.00 0.00 29 1020.0
20260502122116 78 0 0.0 0.0 0.00 0.00 0.00 34 1020.0
20260502120611 77 0 0.0 0.0 0.00 0.00 0.00 35 1021.0
20260502115106 75 0 3.5 0.0 0.00 0.00 0.00 38 1021.0
20260502113601 74 0 5.2 0.0 0.00 0.00 0.00 39 1021.0
20260502112056 75 0 0.0 0.0 0.00 0.00 0.00 43 1021.0
20260502110550 72 0 0.0 0.0 0.00 0.00 0.00 42 1022.0
20260502105045 71 0 2.6 0.0 0.00 0.00 0.00 44 1022.0
20260502103540 71 0 0.0 0.0 0.00 0.00 0.00 45 1022.0
20260502102035 70 0 0.0 0.0 0.00 0.00 0.00 45 1022.0
20260502100529 70 0 0.9 0.0 0.00 0.00 0.00 45 1022.0
20260502090508 66 0 8.7 0.0 0.00 0.00 0.00 48 1023.0
20260502070426 56 0 0.9 0.0 0.00 0.00 0.00 57 1024.0
20260502064921 54 0 0.9 0.0 0.00 0.00 0.00 61 1024.0
20260502063416 55 0 0.0 0.0 0.00 0.00 0.00 63 1024.0
20260502061911 53 0 0.0 0.0 0.00 0.00 0.00 67 1024.0
20260502060405 51 0 0.0 0.0 0.00 0.00 0.00 69 1024.0
20260502054900 53 0 0.0 0.0 0.00 0.00 0.00 67 1024.0
20260502053355 52 0 0.0 0.0 0.00 0.00 0.00 67 1024.0
20260502051850 51 0 0.0 0.0 0.00 0.00 0.00 68 1024.0
20260502050345 49 0 0.0 0.0 0.00 0.00 0.00 71 1024.0
20260502044839 49 0 0.0 0.0 0.00 0.00 0.00 72 1024.0
20260502043334 49 0 0.0 0.0 0.00 0.00 0.00 72 1024.0
20260502041829 48 0 0.0 0.0 0.00 0.00 0.00 73 1024.0
20260502040324 49 0 0.0 0.0 0.00 0.00 0.00 72 1024.0
20260502034818 49 0 0.0 0.0 0.00 0.00 0.00 71 1024.0
20260502033313 49 0 0.0 0.0 0.00 0.00 0.00 71 1024.0
20260502031808 49 0 0.0 0.0 0.00 0.00 0.00 71 1024.0
20260502030303 49 0 0.0 0.0 0.00 0.00 0.00 69 1024.0
20260502024757 50 0 0.0 0.0 0.00 0.00 0.00 69 1024.0
20260502023252 49 0 0.0 0.0 0.00 0.00 0.00 69 1024.0
20260502021747 50 0 0.0 0.0 0.00 0.00 0.00 68 1024.0
20260502020242 50 0 0.0 0.0 0.00 0.00 0.00 67 1024.0
20260502014736 50 0 0.0 0.0 0.00 0.00 0.00 66 1024.0
20260502013231 50 0 0.0 0.0 0.00 0.00 0.00 65 1024.0
20260502011726 51 0 0.0 0.0 0.00 0.00 0.00 64 1024.0
20260502010221 52 0 0.0 0.0 0.00 0.00 0.00 62 1024.0
20260502004716 52 0 0.0 0.0 0.00 0.00 0.00 62 1024.0
20260502003210 51 0 0.0 0.0 0.00 0.00 0.00 63 1024.0
20260502001705 51 0 0.0 0.0 0.00 0.00 0.00 61 1024.0
20260502000200 53 0 0.0 0.0 0.00 0.00 0.00 59 1024.0
20260501234655 54 0 0.0 0.0 0.00 0.00 0.00 58 1024.0
20260501231644 54 0 0.0 0.0 0.00 0.00 0.00 57 1024.0
20260501230139 53 0 0.0 0.0 0.00 0.00 0.00 57 1024.0
20260501224634 53 0 0.0 0.0 0.00 0.00 0.00 56 1024.0
20260501223128 54 0 0.0 0.0 0.00 0.00 0.00 55 1024.0
20260501221623 54 0 0.0 0.0 0.00 0.00 0.00 55 1024.0
20260501220118 56 0 0.0 0.0 0.00 0.00 0.00 52 1024.0
20260501214613 55 0 0.0 0.0 0.00 0.00 0.00 52 1023.0
20260501213107 56 0 0.0 0.0 0.00 0.00 0.00 50 1024.0
20260501211602 57 0 0.0 0.0 0.00 0.00 0.00 48 1023.0
20260501210057 58 0 0.0 0.0 0.00 0.00 0.00 47 1023.0
20260501204552 59 0 0.0 0.0 0.00 0.00 0.00 45 1023.0
20260501203046 60 0 0.0 0.0 0.00 0.00 0.00 44 1023.0
20260501201541 61 0 0.0 0.0 0.00 0.00 0.00 43 1023.0